Regional Weather Roundup
Issued by NWS

Home | Current Version | Previous Version | Text Only | Print | Product List | Glossary On
Versions: 1 2 3 4 5 6 7 8 9 10 11 12 13 14 15 16 17 18 19 20 21 22 23 24 25 26 27 28 29 30 31 32 33 34 35 36 37 38 39 40 41 42 43 44 45 46 47 48 49 50
000
ASUS43 KDTX 261101
RWRMI
MICHIGAN HOURLY REGIONAL WEATHER ROUNDUP
NATIONAL WEATHER SERVICE DETROIT/PONTIAC MI
700 AM EDT MON JUN 26 2017

NOTE: "FAIR" INDICATES FEW OR NO CLOUDS BELOW 12,000 FEET WITH NO
SIGNIFICANT WEATHER AND/OR OBSTRUCTION TO VISIBILITY.

MIZ047>049-052>055-059>063-066>070-074>076-081>083-261200-
SOUTHEAST LOWER MICHIGAN

CITY           SKY/WX    TMP DP  RH WIND       PRES   REMARKS
ADRIAN         CLEAR     54  50  86 W5        30.07R
ALMA           MOCLDY    54  53  94 W9        30.02S
ANN ARBOR      CLEAR     52  51  97 W7        30.04R
BAD AXE        CLOUDY    55  53  94 SW7       29.98S
CARO           CLOUDY    55  53  94 SW5       29.99S
DETROIT CITY   CLEAR     57  49  74 W8        30.03R
DETROIT        PTCLDY    57  51  80 W8        30.04S
FLINT          PTCLDY    54  51  90 W7        30.02S
GROSSE ILE     PTCLDY    56  49  78 W3        30.03R
HILLSDALE      PTCLDY    54  50  87 W6        30.06S
HOWELL         CLEAR     54  50  85 W7        30.03S

CITY           SKY/WX    TMP DP  RH WIND       PRES   REMARKS
JACKSON        PTCLDY    54  51  90 W8        30.05S
LAMBERTVILLE   CLEAR     57  50  79 W3        30.05S
LANSING        PTCLDY    56  51  84 SW7       30.04S
LAPEER         FAIR      55  51  85 W6        30.01S
MASON          PTCLDY    55  52  92 W5        30.05R
MONROE         CLEAR     56  51  82 W7        30.04S
MT. CLEMENS    CLEAR     57  51  79 W8        30.00S
PONTIAC        PTCLDY    54  52  93 W8        30.01S
PORT HOPE        N/A     58  54  86 SW5       29.95S
PORT HURON     CLEAR     54  50  87 SW3       30.01S
TRI CITIES     CLOUDY    56  54  93 SW7       30.00S
MIDLAND        CLOUDY    56  52  88 SW3       29.99S
TROY           CLEAR     55  49  79 W8        30.04S
SAGINAW HB     CLOUDY    55  50  82 SW8       29.99S
$$
MIZ043>046-050>051-056>058-064>065-071>073-077>080-261200-
SOUTHWEST LOWER MICHIGAN

CITY           SKY/WX    TMP DP  RH WIND       PRES   REMARKS
BATTLE CREEK   CLEAR     54  53  97 W7        30.07R
BENTON HARBOR  PTCLDY    61  48  62 W9        30.08R
BIG RAPIDS     MOCLDY    53  49  86 W7        30.00S
COLDWATER      CLEAR     55  52  88 W6        30.08R
FREMONT        FAIR      52  49  88 W6        30.02F
HOLLAND        PTCLDY    59  50  72 VRB7      30.06S
GRAND RAPIDS   PTCLDY    55  53  93 W9        30.04S
IONIA          FAIR      54  52  94 W6        30.04R
KALAMAZOO      CLEAR     56  51  84 W7        30.08R
LUDINGTON      PTCLDY    55  47  76 NW5       30.02R
MARSHALL       MOCLDY    55  53  95 SW6       30.06S
MOUNT PLEASANT CLEAR     54  51  89 W6        29.99S
MUSKEGON       CLOUDY    60  52  74 W9        30.04S
SOUTH HAVEN    PTCLDY    61  52  71 W8        30.07S
$$
MIZ016>042-261200-
NORTHERN LOWER MICHIGAN

CITY           SKY/WX    TMP DP  RH WIND       PRES   REMARKS
ALPENA         MOSUNNY   52  52 100 CALM      29.95S
BEAVER ISLAND  CLOUDY    53  52  96 N3        29.93S
BELLAIRE       LGT RAIN  55  52  92 CALM      29.94S
CADILLAC       MOCLDY    52  50  92 W9        29.97R
CHARLEVOIX     CLOUDY    55  55 100 CALM      29.95S
FRANKFORT      CLOUDY    55  48  76 W12G18    29.98R
GAYLORD        LGT RAIN  54  51  90 SW6       29.94R
GRAYLING       CLOUDY    54  51  89 SW7       29.95S
HARBOR SPRINGS RAIN      55  55 100 SW6       29.93S
HOUGHTON LAKE  CLOUDY    55  51  86 SW14G22   29.96S
MANISTEE       PTCLDY    53  48  83 W13       30.00R
OSCODA         CLOUDY    55  54  97 SW3       29.95S
PELLSTON       LGT RAIN  55  52  89 CALM      29.93S
ROGERS CITY    CLOUDY    55  54  94 CALM      29.94S
TRAVERSE CITY  CLOUDY    56  52  86 SW8G17    29.94R
$$
MIZ007>008-015-261200-
EASTERN UPPER MICHIGAN

CITY           SKY/WX    TMP DP  RH WIND       PRES   REMARKS
KINROSS        CLOUDY    52  52 100 CALM      29.93S
MACKINAC ISLAN RAIN      53  53 100 N3        29.93S
NEWBERRY       CLOUDY    47  46  97 N5        29.94S
S. S. MARIE    CLOUDY    54  51  90 NE3       29.93S
$$
MIZ004>006-011>014-085-261200-
CENTRAL UPPER MICHIGAN

CITY           SKY/WX    TMP DP  RH WIND       PRES   REMARKS
MANISTIQUE     CLOUDY    50  47  89 NW6       29.94R
ESCANABA       CLOUDY    52  51  97 W7        29.95S
MENOMINEE      PTCLDY    48  46  93 W3        30.00S
SAWYER-GWINN   LGT RAIN  48  46  93 NE12      29.96S
$$
MIZ001>003-009>011-084-261200-
WESTERN UPPER MICHIGAN

CITY           SKY/WX    TMP DP  RH WIND       PRES   REMARKS
IRON MOUNTAIN  CLOUDY    49  44  83 W8        29.97R
HOUGHTON       LGT RAIN  47  45  93 N7        29.97R
IRONWOOD       LGT RAIN  46  45  96 NW14      30.04F FOG
$$

ABBREVIATIONS USED IN REMARKS
   TC - TEMPERATURE IN CELSIUS
  WCI - WIND CHILL INDEX
   HX - HEAT INDEX
  VSB - VISIBILITY




USA.gov is the U.S. government's official web portal to all federal, state and local government web resources and services.